Overview Statistics Trail Chart Weather Telemetry Raw packets
 

This is the latest recevied weather packets stored in our database for station/object KY0TEQ-13. If no packets are shown the sender has not sent any weather packets the latest 10 day(s).

<< 70 71 72 73 74 75 76 >>
Time Temp. Humidity Pressure Rain* Wind** Luminosity Snow
1788189002 15° C 76% 1311.9 hPa 0 mm - 134 W/m² -
1788188697 15° C 76% 1312.2 hPa 0 mm - 126 W/m² -
1788188397 15° C 76% 1312.1 hPa 0 mm - 119 W/m² -
1788188093 15° C 76% 1312.2 hPa 0 mm - 125 W/m² -
1788187789 14.44° C 76% 1311.9 hPa 0 mm - 123 W/m² -
1788187484 14.44° C 77% 1311.8 hPa 0 mm - 98 W/m² -
1788187179 14.44° C 77% 1311.9 hPa 0 mm - 74 W/m² -
1788186874 14.44° C 76% 1312.1 hPa 0 mm - 74 W/m² -
1788186570 15° C 75% 1311.8 hPa 0 mm - 93 W/m² -
1788186267 15° C 75% 1311.9 hPa 0 mm - 104 W/m² -
1788185960 14.44° C 78% 1311.8 hPa 0 mm - 105 W/m² -
1788185654 14.44° C 78% 1311.8 hPa 0 mm - 98 W/m² -
1788185349 14.44° C 76% 1311.8 hPa 0 mm - 84 W/m² -
1788185044 14.44° C 77% 1311.7 hPa 0 mm - 77 W/m² -
1788184742 13.89° C 77% 1311.7 hPa 0 mm - 74 W/m² -
1788184436 13.89° C 80% 1311.6 hPa 0 mm - 69 W/m² -
1788184132 13.33° C 80% 1311.3 hPa 0 mm - 66 W/m² -
1788183829 13.33° C 82% 1311.2 hPa 0 mm - 57 W/m² -
1788183528 12.78° C 82% 1311.1 hPa 0 mm - 49 W/m² -
1788183228 12.78° C 83% 1311 hPa 0 mm - 39 W/m² -
1788182923 12.78° C 83% 1311 hPa 0 mm - 28 W/m² -
1788182619 12.78° C 83% 1310.8 hPa 0 mm - 19 W/m² -
1788182318 12.78° C 83% 1310.7 hPa 0 mm - 12 W/m² -
1788182014 12.78° C 82% 1310.6 hPa 0 mm - 8 W/m² -
1788181709 12.78° C 82% 1310.4 hPa 0 mm - 9 W/m² -

* Rain latest hour (hover to see other rain measurements)
** Current wind speed in m/s (hover to see current wind gust speed)